K2PO Weather Reports


Display with metric or nautical units.
time (UTC)temp
F
wind
direction
speed
MPH
gust
MPH
rain 1hr
in
rain 24hr
in
rain mn
in
humidity
%
barometer
mb
20210726034328 71 39 0.0 0.0 0.00 0.00 0.00 59 987.9
20210726032827 72 45 0.0 0.0 0.00 0.00 0.00 59 988.0
20210726031314 73 37 0.0 0.0 0.00 0.00 0.00 59 987.9
20210726025818 74 28 0.0 0.0 0.00 0.00 0.00 58 987.8
20210726024325 75 23 0.0 0.0 0.00 0.00 0.00 57 987.7
20210726022826 76 45 0.0 0.0 0.00 0.00 0.00 55 987.8
20210726021313 77 66 0.0 0.0 0.00 0.00 0.00 53 987.7
20210726015816 77 68 0.0 0.0 0.00 0.00 0.00 51 987.8
20210726014321 78 100 0.0 0.0 0.00 0.00 0.00 49 987.8
20210726012841 79 83 0.0 0.0 0.00 0.00 0.00 47 987.8
20210726011316 80 85 0.0 0.0 0.00 0.00 0.00 45 988.0
20210726005820 82 93 0.0 0.0 0.00 0.00 0.00 42 988.1
20210726004343 83 359 0.0 0.0 0.00 0.00 0.00 41 988.0
20210726002810 85 359 0.0 0.0 0.00 0.00 0.00 39 988.2
20210726001313 85 29 0.0 0.0 0.00 0.00 0.00 39 988.3
20210725235841 86 76 0.0 0.0 0.00 0.00 0.00 35 988.4
20210725234322 86 68 0.0 0.0 0.00 0.00 0.00 36 988.5
20210725232829 86 359 0.0 0.0 0.00 0.00 0.00 34 988.7
20210725231329 87 359 0.0 0.0 0.00 0.00 0.00 35 988.8
20210725225816 86 359 0.0 0.0 0.00 0.00 0.00 35 988.9
20210725224320 86 359 0.0 0.0 0.00 0.00 0.00 37 989.0
20210725222827 86 359 0.0 0.0 0.00 0.00 0.00 37 989.2
20210725221329 85 127 0.0 0.0 0.00 0.00 0.00 37 989.4
20210725215817 84 91 0.0 0.0 0.00 0.00 0.00 37 989.5
20210725214321 85 359 0.0 0.0 0.00 0.00 0.00 38 989.5
20210725212828 85 359 0.0 0.0 0.00 0.00 0.00 41 989.6
20210725211351 85 359 0.0 0.0 0.00 0.00 0.00 42 989.8
20210725205818 83 359 0.0 0.0 0.00 0.00 0.00 43 989.7
20210725204321 83 359 0.0 0.0 0.00 0.00 0.00 43 989.9
20210725202824 82 359 0.0 0.0 0.00 0.00 0.00 46 989.9
20210725201312 82 359 0.0 0.0 0.00 0.00 0.00 46 990.1
20210725195815 81 359 0.0 0.0 0.00 0.00 0.00 47 990.3
20210725194322 80 359 0.0 0.0 0.00 0.00 0.00 49 990.5
20210725192826 79 359 0.0 0.0 0.00 0.00 0.00 49 990.4
20210725191313 79 359 0.0 0.0 0.00 0.00 0.00 49 990.5
20210725185817 78 359 0.0 0.0 0.00 0.00 0.00 51 990.6
20210725184324 77 359 0.0 0.0 0.00 0.00 0.00 53 990.5
20210725182828 76 359 0.0 0.0 0.00 0.00 0.00 53 990.6
20210725181315 76 359 0.0 0.0 0.00 0.00 0.00 54 990.7
20210725175839 75 45 0.0 0.0 0.00 0.00 0.00 55 990.8
20210725174346 73 95 0.0 0.0 0.00 0.00 0.00 56 990.8
20210725172828 73 359 0.0 0.0 0.00 0.00 0.00 57 990.8
20210725171313 71 359 0.0 0.0 0.00 0.00 0.00 59 991.0
20210725165837 71 359 0.0 0.0 0.00 0.00 0.00 60 991.1
20210725164320 70 121 0.0 0.0 0.00 0.00 0.00 61 991.0
20210725162825 70 359 0.0 0.0 0.00 0.00 0.00 62 991.1
20210725161328 69 359 0.0 0.0 0.00 0.00 0.00 62 991.3
20210725155816 68 359 0.0 0.0 0.00 0.00 0.00 63 991.2
20210725154319 67 110 0.0 0.0 0.00 0.00 0.00 65 991.1
20210725152827 66 359 0.0 0.0 0.00 0.00 0.00 67 991.1
20210725151330 65 99 0.0 0.0 0.00 0.00 0.00 68 990.8
20210725145814 64 359 0.0 0.0 0.00 0.00 0.00 69 990.7
20210725144318 64 92 0.0 0.0 0.00 0.00 0.00 70 990.8
20210725142825 64 66 0.0 0.0 0.00 0.00 0.00 70 990.8
20210725141327 63 46 0.0 0.0 0.00 0.00 0.00 70 990.9
20210725135835 62 45 0.0 0.0 0.00 0.00 0.00 71 990.8
20210725134318 61 44 0.0 0.0 0.00 0.00 0.00 69 990.7
20210725132843 59 359 0.0 0.0 0.00 0.00 0.00 65 990.7
20210725131325 58 39 0.0 0.0 0.00 0.00 0.00 64 990.5
20210725125850 58 48 0.0 0.0 0.00 0.00 0.00 65 990.5
20210725124335 59 359 0.0 0.0 0.00 0.00 0.00 67 990.4
20210725122818 59 55 0.0 0.0 0.00 0.00 0.00 67 990.3
20210725121325 59 29 0.0 0.0 0.00 0.00 0.00 68 990.4
20210725115828 60 359 0.0 0.0 0.00 0.00 0.00 69 990.3
20210725114315 60 31 0.0 0.0 0.00 0.00 0.00 70 990.2
20210725112818 60 45 0.0 0.0 0.00 0.00 0.00 71 990.2
20210725111325 61 48 0.0 0.0 0.00 0.00 0.00 71 990.3
20210725105848 61 35 0.0 0.0 0.00 0.00 0.00 71 990.3
20210725104314 61 21 0.0 0.0 0.00 0.00 0.00 71 990.3
20210725102818 61 359 0.0 0.0 0.00 0.00 0.00 71 990.2
20210725101326 62 359 0.0 0.0 0.00 0.00 0.00 71 990.3
20210725095827 63 359 0.0 0.0 0.00 0.00 0.00 71 990.2
20210725094314 63 359 0.0 0.0 0.00 0.00 0.00 71 990.3
20210725092819 63 359 0.0 0.0 0.00 0.00 0.00 71 990.1
20210725091322 63 359 0.0 0.0 0.00 0.00 0.00 70 990.0
20210725085827 63 359 0.0 0.0 0.00 0.00 0.00 70 990.0
20210725084332 63 359 0.0 0.0 0.00 0.00 0.00 70 990.2
20210725082815 63 359 0.0 0.0 0.00 0.00 0.00 70 990.2
20210725081338 63 359 0.0 0.0 0.00 0.00 0.00 70 990.1
20210725075826 63 359 0.0 0.0 0.00 0.00 0.00 70 990.0
20210725074331 63 359 0.0 0.0 0.00 0.00 0.00 70 990.0
20210725072815 64 359 0.0 0.0 0.00 0.00 0.00 70 989.9
20210725071318 64 359 0.0 0.0 0.00 0.00 0.00 69 989.9
20210725065826 65 359 0.0 0.0 0.00 0.00 0.00 68 989.9
20210725064329 65 359 0.0 0.0 0.00 0.00 0.00 67 990.0
20210725062818 66 359 0.0 0.0 0.00 0.00 0.00 65 990.1
20210725061321 67 359 0.0 0.0 0.00 0.00 0.00 64 990.2
20210725055849 67 359 0.0 0.0 0.00 0.00 0.00 63 990.2
20210725054350 68 25 0.0 0.0 0.00 0.00 0.00 62 990.0
20210725052814 68 44 0.0 0.0 0.00 0.00 0.00 62 990.0
20210725051320 69 46 0.0 0.0 0.00 0.00 0.00 62 989.9
20210725045844 69 19 0.0 0.0 0.00 0.00 0.00 61 990.0
20210725044350 70 46 0.0 0.0 0.00 0.00 0.00 61 989.9
20210725042811 70 27 0.0 0.0 0.00 0.00 0.00 62 990.0
20210725041318 70 47 0.0 0.0 0.00 0.00 0.00 63 989.8
20210725035822 71 33 0.0 0.0 0.00 0.00 0.00 62 989.7